Time,TemperatureF,DewpointF,PressureIn,WindDirection,WindDirectionDegrees,WindSpeedMPH,WindSpeedGustMPH,Humidity,HourlyPrecipIn,Conditions,Clouds,dailyrainin,SoftwareType,DateUTC
2013-09-30 00:01:00,73.4,41.0,29.92,North,4,0.0,0.0,31,0.00,,---,0.00,VWS V14.00,2013-09-30 04:01:00,
2013-09-30 00:02:00,73.4,41.0,29.92,North,4,0.0,0.0,31,0.00,,---,0.00,VWS V14.00,2013-09-30 04:02:00,
2013-09-30 00:06:00,73.4,41.0,29.92,North,4,0.0,0.0,31,0.00,,---,0.00,VWS V14.00,2013-09-30 04:06:00,
2013-09-30 00:12:00,73.2,41.6,29.92,North,4,0.0,0.0,32,0.00,,---,0.00,VWS V14.00,2013-09-30 04:12:00,
2013-09-30 00:15:00,73.2,41.6,29.92,North,4,0.0,0.0,32,0.00,,---,0.00,VWS V14.00,2013-09-30 04:15:00,
2013-09-30 00:16:00,73.6,41.9,29.92,North,4,0.0,0.0,32,0.00,,---,0.00,VWS V14.00,2013-09-30 04:16:00,
2013-09-30 00:21:00,73.4,41.8,29.92,North,4,0.0,0.0,32,0.00,,---,0.00,VWS V14.00,2013-09-30 04:21:00,
2013-09-30 00:27:00,73.4,41.8,29.92,North,4,0.0,0.0,32,0.00,,---,0.00,VWS V14.00,2013-09-30 04:27:00,
2013-09-30 00:33:00,73.0,41.5,29.92,North,4,0.0,0.0,32,0.00,,---,0.00,VWS V14.00,2013-09-30 04:33:00,
2013-09-30 00:38:00,72.9,41.3,29.92,North,4,0.0,0.0,32,0.00,,---,0.00,VWS V14.00,2013-09-30 04:38:00,
2013-09-30 00:44:00,72.7,41.2,29.92,North,4,0.0,0.0,32,0.00,,---,0.00,VWS V14.00,2013-09-30 04:44:00,
2013-09-30 00:49:00,72.7,41.2,29.92,North,4,0.0,0.0,32,0.00,,---,0.00,VWS V14.00,2013-09-30 04:49:00,
2013-09-30 00:54:00,72.7,42.0,29.92,North,4,0.0,0.0,33,0.00,,---,0.00,VWS V14.00,2013-09-30 04:54:00,
2013-09-30 00:59:00,72.9,42.1,29.92,North,4,0.0,0.0,33,0.00,,---,0.00,VWS V14.00,2013-09-30 04:59:00,
2013-09-30 01:05:00,72.9,42.1,29.92,North,4,0.0,0.0,33,0.00,,---,0.00,VWS V14.00,2013-09-30 05:05:00,
2013-09-30 01:10:00,72.7,42.0,29.92,North,4,0.0,0.0,33,0.00,,---,0.00,VWS V14.00,2013-09-30 05:10:00,
2013-09-30 01:16:00,72.3,41.6,29.92,North,4,0.0,0.0,33,0.00,,---,0.00,VWS V14.00,2013-09-30 05:16:00,
2013-09-30 01:22:00,72.3,41.6,29.92,North,4,0.0,0.0,33,0.00,,---,0.00,VWS V14.00,2013-09-30 05:22:00,
2013-09-30 01:28:00,72.0,42.1,29.92,North,4,0.0,0.0,34,0.00,,---,0.00,VWS V14.00,2013-09-30 05:28:00,
2013-09-30 01:34:00,71.8,41.9,29.92,North,4,0.0,0.0,34,0.00,,---,0.00,VWS V14.00,2013-09-30 05:34:00,
2013-09-30 01:40:00,71.8,41.9,29.89,North,4,0.0,0.0,34,0.00,,---,0.00,VWS V14.00,2013-09-30 05:40:00,
2013-09-30 01:45:00,72.0,42.1,29.89,North,4,0.0,0.0,34,0.00,,---,0.00,VWS V14.00,2013-09-30 05:45:00,
2013-09-30 01:51:00,72.1,43.0,29.89,North,4,0.0,0.0,35,0.00,,---,0.00,VWS V14.00,2013-09-30 05:51:00,
2013-09-30 01:56:00,72.1,42.2,29.89,North,4,0.0,0.0,34,0.00,,---,0.00,VWS V14.00,2013-09-30 05:56:00,
2013-09-30 02:02:00,72.0,42.1,29.89,North,4,0.0,0.0,34,0.00,,---,0.00,VWS V14.00,2013-09-30 06:02:00,
2013-09-30 02:08:00,72.0,42.8,29.89,North,4,0.0,0.0,35,0.00,,---,0.00,VWS V14.00,2013-09-30 06:08:00,
2013-09-30 02:13:00,72.0,42.8,29.89,North,4,0.0,0.0,35,0.00,,---,0.00,VWS V14.00,2013-09-30 06:13:00,
2013-09-30 02:19:00,71.6,42.5,29.89,North,4,0.0,0.0,35,0.00,,---,0.00,VWS V14.00,2013-09-30 06:19:00,
2013-09-30 02:25:00,71.4,43.1,29.89,North,4,0.0,0.0,36,0.00,,---,0.00,VWS V14.00,2013-09-30 06:25:00,
2013-09-30 02:30:00,71.6,43.3,29.89,North,4,0.0,0.0,36,0.00,,---,0.00,VWS V14.00,2013-09-30 06:30:00,
2013-09-30 02:36:00,71.6,43.3,29.89,North,4,0.0,0.0,36,0.00,,---,0.00,VWS V14.00,2013-09-30 06:36:00,
2013-09-30 02:41:00,71.4,43.1,29.89,North,4,0.0,0.0,36,0.00,,---,0.00,VWS V14.00,2013-09-30 06:41:00,
2013-09-30 02:47:00,71.4,43.1,29.89,North,4,0.0,0.0,36,0.00,,---,0.00,VWS V14.00,2013-09-30 06:47:00,
2013-09-30 02:52:00,71.4,43.8,29.89,North,4,0.0,0.0,37,0.00,,---,0.00,VWS V14.00,2013-09-30 06:52:00,
2013-09-30 02:58:00,71.4,43.8,29.89,North,4,0.0,0.0,37,0.00,,---,0.00,VWS V14.00,2013-09-30 06:58:00,
2013-09-30 03:03:00,71.2,43.7,29.89,North,4,0.0,0.0,37,0.00,,---,0.00,VWS V14.00,2013-09-30 07:03:00,
2013-09-30 03:08:00,71.2,44.4,29.89,North,4,0.0,0.0,38,0.00,,---,0.00,VWS V14.00,2013-09-30 07:08:00,
2013-09-30 03:14:00,71.2,44.4,29.89,North,4,0.0,0.0,38,0.00,,---,0.00,VWS V14.00,2013-09-30 07:14:00,
2013-09-30 03:19:00,71.8,44.8,29.89,North,4,0.0,0.0,38,0.00,,---,0.00,VWS V14.00,2013-09-30 07:19:00,
2013-09-30 03:25:00,71.8,44.8,29.89,North,4,0.0,0.0,38,0.00,,---,0.00,VWS V14.00,2013-09-30 07:25:00,
2013-09-30 03:30:00,71.6,44.7,29.89,North,4,0.0,0.0,38,0.00,,---,0.00,VWS V14.00,2013-09-30 07:30:00,
2013-09-30 03:35:00,71.6,44.7,29.89,North,4,0.0,0.0,38,0.00,,---,0.00,VWS V14.00,2013-09-30 07:35:00,
2013-09-30 03:41:00,71.6,44.7,29.89,North,4,0.0,0.0,38,0.00,,---,0.00,VWS V14.00,2013-09-30 07:41:00,
2013-09-30 03:47:00,71.6,44.7,29.89,North,4,0.0,0.0,38,0.00,,---,0.00,VWS V14.00,2013-09-30 07:47:00,
2013-09-30 03:52:00,71.2,46.4,29.89,North,4,0.0,0.0,41,0.00,,---,0.00,VWS V14.00,2013-09-30 07:52:00,
2013-09-30 03:57:00,71.2,46.4,29.89,North,4,0.0,0.0,41,0.00,,---,0.00,VWS V14.00,2013-09-30 07:57:00,
2013-09-30 04:02:00,71.4,45.9,29.89,North,4,0.0,0.0,40,0.00,,---,0.00,VWS V14.00,2013-09-30 08:02:00,
2013-09-30 04:08:00,71.4,45.9,29.89,North,4,0.0,0.0,40,0.00,,---,0.00,VWS V14.00,2013-09-30 08:08:00,
2013-09-30 04:13:00,71.4,45.9,29.89,North,4,0.0,0.0,40,0.00,,---,0.00,VWS V14.00,2013-09-30 08:13:00,
2013-09-30 04:19:00,70.9,46.0,29.89,North,4,0.0,0.0,41,0.00,,---,0.00,VWS V14.00,2013-09-30 08:19:00,
2013-09-30 04:25:00,70.9,46.0,29.89,North,4,0.0,0.0,41,0.00,,---,0.00,VWS V14.00,2013-09-30 08:25:00,
2013-09-30 04:31:00,71.1,46.8,29.89,North,4,0.0,0.0,42,0.00,,---,0.00,VWS V14.00,2013-09-30 08:31:00,
2013-09-30 04:37:00,71.1,46.8,29.89,North,4,0.0,0.0,42,0.00,,---,0.00,VWS V14.00,2013-09-30 08:37:00,
2013-09-30 04:42:00,71.1,46.8,29.89,North,4,0.0,0.0,42,0.00,,---,0.00,VWS V14.00,2013-09-30 08:42:00,
2013-09-30 04:47:00,71.2,47.6,29.89,North,4,0.0,0.0,43,0.00,,---,0.00,VWS V14.00,2013-09-30 08:47:00,
2013-09-30 04:53:00,71.4,47.8,29.89,North,4,0.0,0.0,43,0.00,,---,0.00,VWS V14.00,2013-09-30 08:53:00,
2013-09-30 04:58:00,71.4,48.4,29.89,North,4,0.0,0.0,44,0.00,,---,0.00,VWS V14.00,2013-09-30 08:58:00,
2013-09-30 05:04:00,71.4,48.4,29.89,North,4,0.0,0.0,44,0.00,,---,0.00,VWS V14.00,2013-09-30 09:04:00,
2013-09-30 05:10:00,71.4,48.4,29.89,North,4,0.0,0.0,44,0.00,,---,0.00,VWS V14.00,2013-09-30 09:10:00,
2013-09-30 05:15:00,71.4,48.4,29.89,North,4,0.0,0.0,44,0.00,,---,0.00,VWS V14.00,2013-09-30 09:15:00,
2013-09-30 05:20:00,71.4,49.0,29.89,North,4,0.0,0.0,45,0.00,,---,0.00,VWS V14.00,2013-09-30 09:20:00,
2013-09-30 05:25:00,71.4,49.0,29.89,North,4,0.0,0.0,45,0.00,,---,0.00,VWS V14.00,2013-09-30 09:25:00,
2013-09-30 05:31:00,71.4,49.0,29.89,North,4,0.0,0.0,45,0.00,,---,0.00,VWS V14.00,2013-09-30 09:31:00,
2013-09-30 05:36:00,71.4,49.6,29.89,North,4,0.0,0.0,46,0.00,,---,0.00,VWS V14.00,2013-09-30 09:36:00,
2013-09-30 05:42:00,71.4,49.6,29.89,North,4,0.0,0.0,46,0.00,,---,0.00,VWS V14.00,2013-09-30 09:42:00,
2013-09-30 05:48:00,71.2,48.8,29.89,North,4,0.0,0.0,45,0.00,,---,0.00,VWS V14.00,2013-09-30 09:48:00,
2013-09-30 05:53:00,71.2,48.8,29.89,North,4,0.0,0.0,45,0.00,,---,0.00,VWS V14.00,2013-09-30 09:53:00,
2013-09-30 05:58:00,71.2,48.8,29.89,North,4,0.0,0.0,45,0.00,,---,0.00,VWS V14.00,2013-09-30 09:58:00,
2013-09-30 06:03:00,71.2,50.0,29.89,North,4,0.0,0.0,47,0.00,,---,0.00,VWS V14.00,2013-09-30 10:03:00,
2013-09-30 06:09:00,71.2,50.0,29.89,North,4,0.0,0.0,47,0.00,,---,0.00,VWS V14.00,2013-09-30 10:09:00,
2013-09-30 06:14:00,71.1,49.8,29.89,North,4,0.0,0.0,47,0.00,,---,0.00,VWS V14.00,2013-09-30 10:14:00,
2013-09-30 06:20:00,71.1,49.8,29.89,North,4,0.0,0.0,47,0.00,,---,0.00,VWS V14.00,2013-09-30 10:20:00,
2013-09-30 06:25:00,71.1,49.8,29.89,North,4,0.0,0.0,47,0.00,,---,0.00,VWS V14.00,2013-09-30 10:25:00,
2013-09-30 06:31:00,71.1,51.0,29.89,North,4,0.0,0.0,49,0.00,,---,0.00,VWS V14.00,2013-09-30 10:31:00,
2013-09-30 06:36:00,71.2,50.6,29.89,North,4,0.0,0.0,48,0.00,,---,0.00,VWS V14.00,2013-09-30 10:36:00,
2013-09-30 06:41:00,71.1,50.4,29.92,North,4,0.0,0.0,48,0.00,,---,0.00,VWS V14.00,2013-09-30 10:41:00,
2013-09-30 06:46:00,71.1,50.4,29.92,North,4,0.0,0.0,48,0.00,,---,0.00,VWS V14.00,2013-09-30 10:46:00,
2013-09-30 06:51:00,70.7,50.1,29.92,North,4,0.0,0.0,48,0.00,,---,0.00,VWS V14.00,2013-09-30 10:51:00,
2013-09-30 06:56:00,70.9,50.8,29.92,North,4,0.0,0.0,49,0.00,,---,0.00,VWS V14.00,2013-09-30 10:56:00,
2013-09-30 07:02:00,70.9,50.8,29.92,North,4,0.0,0.0,49,0.00,,---,0.00,VWS V14.00,2013-09-30 11:02:00,
2013-09-30 07:07:00,71.1,52.0,29.92,North,4,0.0,0.0,51,0.00,,---,0.00,VWS V14.00,2013-09-30 11:07:00,
2013-09-30 07:13:00,71.1,51.5,29.92,North,4,0.0,0.0,50,0.00,,---,0.00,VWS V14.00,2013-09-30 11:13:00,
2013-09-30 07:18:00,71.1,51.5,29.92,North,4,0.0,0.0,50,0.00,,---,0.00,VWS V14.00,2013-09-30 11:18:00,
2013-09-30 07:38:00,70.3,50.8,29.92,North,4,0.0,0.0,50,0.00,,---,0.00,VWS V14.00,2013-09-30 11:38:00,
2013-09-30 07:44:00,70.9,53.4,29.92,North,4,0.0,0.0,54,0.00,,---,0.00,VWS V14.00,2013-09-30 11:44:00,
2013-09-30 07:49:00,71.2,54.8,29.92,North,4,0.0,0.0,56,0.00,,---,0.00,VWS V14.00,2013-09-30 11:49:00,
2013-09-30 07:55:00,71.4,52.9,29.92,North,4,0.0,0.0,52,0.00,,---,0.00,VWS V14.00,2013-09-30 11:55:00,
2013-09-30 08:01:00,71.4,52.9,29.92,North,4,0.0,0.0,52,0.00,,---,0.00,VWS V14.00,2013-09-30 12:01:00,
2013-09-30 08:07:00,71.4,53.4,29.92,North,4,0.0,0.0,53,0.00,,---,0.00,VWS V14.00,2013-09-30 12:07:00,
2013-09-30 08:13:00,71.6,54.1,29.92,North,4,0.0,0.0,54,0.00,,---,0.00,VWS V14.00,2013-09-30 12:13:00,
2013-09-30 08:19:00,72.1,55.1,29.92,North,4,0.0,0.0,55,0.00,,---,0.00,VWS V14.00,2013-09-30 12:19:00,
2013-09-30 08:24:00,72.3,55.8,29.92,North,4,0.0,0.0,56,0.00,,---,0.00,VWS V14.00,2013-09-30 12:24:00,
2013-09-30 08:30:00,72.3,55.8,29.92,North,4,0.0,0.0,56,0.00,,---,0.00,VWS V14.00,2013-09-30 12:30:00,
2013-09-30 08:36:00,73.4,56.8,29.92,North,4,0.0,0.0,56,0.00,,---,0.00,VWS V14.00,2013-09-30 12:36:00,
2013-09-30 08:42:00,73.4,56.8,29.92,North,4,0.0,0.0,56,0.00,,---,0.00,VWS V14.00,2013-09-30 12:42:00,
2013-09-30 08:48:00,73.6,57.4,29.92,North,4,0.0,0.0,57,0.00,,---,0.00,VWS V14.00,2013-09-30 12:48:00,
2013-09-30 08:54:00,73.6,57.4,29.95,North,4,0.0,0.0,57,0.00,,---,0.00,VWS V14.00,2013-09-30 12:54:00,
2013-09-30 08:59:00,73.8,57.6,29.95,North,4,0.0,0.0,57,0.00,,---,0.00,VWS V14.00,2013-09-30 12:59:00,
2013-09-30 09:05:00,74.3,59.5,29.95,North,4,0.0,0.0,60,0.00,,---,0.00,VWS V14.00,2013-09-30 13:05:00,
2013-09-30 09:11:00,75.2,59.9,29.95,North,4,0.0,0.0,59,0.00,,---,0.00,VWS V14.00,2013-09-30 13:11:00,
2013-09-30 09:16:00,75.4,59.6,29.95,North,4,0.0,0.0,58,0.00,,---,0.00,VWS V14.00,2013-09-30 13:16:00,
2013-09-30 09:22:00,75.7,58.4,29.95,North,4,0.0,0.0,55,0.00,,---,0.00,VWS V14.00,2013-09-30 13:22:00,
2013-09-30 09:27:00,76.3,57.9,29.95,North,4,0.0,0.0,53,0.00,,---,0.00,VWS V14.00,2013-09-30 13:27:00,
2013-09-30 09:33:00,77.2,51.7,29.95,North,4,0.0,0.0,41,0.00,,---,0.00,VWS V14.00,2013-09-30 13:33:00,
2013-09-30 09:38:00,77.5,51.3,29.95,North,4,0.0,0.0,40,0.00,,---,0.00,VWS V14.00,2013-09-30 13:38:00,
2013-09-30 09:44:00,77.7,49.4,29.95,North,4,0.0,0.0,37,0.00,,---,0.00,VWS V14.00,2013-09-30 13:44:00,
2013-09-30 09:50:00,77.7,49.4,29.95,North,4,0.0,0.0,37,0.00,,---,0.00,VWS V14.00,2013-09-30 13:50:00,
2013-09-30 09:55:00,78.8,46.5,29.95,North,4,0.0,0.0,32,0.00,,---,0.00,VWS V14.00,2013-09-30 13:55:00,
2013-09-30 10:01:00,78.8,46.5,29.95,North,4,0.0,0.0,32,0.00,,---,0.00,VWS V14.00,2013-09-30 14:01:00,
2013-09-30 10:07:00,79.3,44.4,29.95,North,4,0.0,0.0,29,0.00,,---,0.00,VWS V14.00,2013-09-30 14:07:00,
2013-09-30 10:12:00,79.3,44.4,29.95,North,4,0.0,0.0,29,0.00,,---,0.00,VWS V14.00,2013-09-30 14:12:00,
2013-09-30 10:17:00,79.3,44.4,29.95,North,4,0.0,0.0,29,0.00,,---,0.00,VWS V14.00,2013-09-30 14:17:00,
2013-09-30 10:22:00,80.4,37.0,29.95,North,4,0.0,0.0,21,0.00,,---,0.00,VWS V14.00,2013-09-30 14:22:00,
2013-09-30 10:28:00,80.4,37.0,29.95,North,4,0.0,0.0,21,0.00,,---,0.00,VWS V14.00,2013-09-30 14:28:00,
2013-09-30 10:33:00,81.0,37.4,29.95,North,4,0.0,0.0,21,0.00,,---,0.00,VWS V14.00,2013-09-30 14:33:00,
2013-09-30 10:39:00,81.9,36.9,29.95,North,4,0.0,0.0,20,0.00,,---,0.00,VWS V14.00,2013-09-30 14:39:00,
2013-09-30 10:44:00,81.9,36.9,29.95,SE,136,2.7,2.7,20,0.00,,---,0.00,VWS V14.00,2013-09-30 14:44:00,
2013-09-30 10:50:00,82.2,37.2,29.95,SE,136,0.0,0.0,20,0.00,,---,0.00,VWS V14.00,2013-09-30 14:50:00,
2013-09-30 10:56:00,83.3,36.8,29.95,SE,136,0.0,0.0,19,0.00,,---,0.00,VWS V14.00,2013-09-30 14:56:00,
2013-09-30 11:02:00,83.3,36.8,29.95,SE,136,0.0,0.0,19,0.00,,---,0.00,VWS V14.00,2013-09-30 15:02:00,
2013-09-30 11:08:00,83.7,37.1,29.95,SSE,154,0.0,0.0,19,0.00,,---,0.00,VWS V14.00,2013-09-30 15:08:00,
2013-09-30 11:14:00,83.7,32.8,29.95,SSE,154,0.0,0.0,16,0.00,,---,0.00,VWS V14.00,2013-09-30 15:14:00,
2013-09-30 11:19:00,83.7,32.8,29.95,SSE,154,0.0,0.0,16,0.00,,---,0.00,VWS V14.00,2013-09-30 15:19:00,
2013-09-30 11:25:00,84.2,33.2,29.95,SSE,157,0.0,0.0,16,0.00,,---,0.00,VWS V14.00,2013-09-30 15:25:00,
2013-09-30 11:31:00,84.2,33.2,29.95,SSE,157,0.0,0.0,16,0.00,,---,0.00,VWS V14.00,2013-09-30 15:31:00,
2013-09-30 11:36:00,84.2,33.2,29.95,South,170,0.0,0.0,16,0.00,,---,0.00,VWS V14.00,2013-09-30 15:36:00,
2013-09-30 11:42:00,84.0,33.0,29.95,South,170,0.0,0.0,16,0.00,,---,0.00,VWS V14.00,2013-09-30 15:42:00,
2013-09-30 11:47:00,84.7,33.6,29.95,South,170,0.0,0.0,16,0.00,,---,0.00,VWS V14.00,2013-09-30 15:47:00,
2013-09-30 11:52:00,84.7,33.6,29.95,South,170,0.0,0.0,16,0.00,,---,0.00,VWS V14.00,2013-09-30 15:52:00,
2013-09-30 11:58:00,84.2,33.2,29.95,South,170,0.0,0.0,16,0.00,,---,0.00,VWS V14.00,2013-09-30 15:58:00,
2013-09-30 12:04:00,84.0,33.0,29.95,South,170,0.0,0.0,16,0.00,,---,0.00,VWS V14.00,2013-09-30 16:04:00,
2013-09-30 12:09:00,84.0,33.0,29.95,South,170,0.0,0.0,16,0.00,,---,0.00,VWS V14.00,2013-09-30 16:09:00,
2013-09-30 12:14:00,84.2,33.2,29.95,South,170,0.0,0.0,16,0.00,,---,0.00,VWS V14.00,2013-09-30 16:14:00,
2013-09-30 12:20:00,84.0,33.0,29.95,South,170,0.0,0.0,16,0.00,,---,0.00,VWS V14.00,2013-09-30 16:20:00,
2013-09-30 12:25:00,84.2,33.2,29.95,South,170,0.0,0.0,16,0.00,,---,0.00,VWS V14.00,2013-09-30 16:25:00,
2013-09-30 12:31:00,86.2,29.6,29.95,South,170,2.2,2.2,13,0.00,,---,0.00,VWS V14.00,2013-09-30 16:31:00,
2013-09-30 12:36:00,86.2,29.6,29.95,South,170,0.0,0.0,13,0.00,,---,0.00,VWS V14.00,2013-09-30 16:36:00,
2013-09-30 12:42:00,86.2,29.6,29.92,South,169,0.0,0.0,13,0.00,,---,0.00,VWS V14.00,2013-09-30 16:42:00,
2013-09-30 12:48:00,86.2,29.6,29.92,SSE,165,0.0,0.0,13,0.00,,---,0.00,VWS V14.00,2013-09-30 16:48:00,
2013-09-30 12:53:00,87.6,35.9,29.92,SSE,165,0.0,0.0,16,0.00,,---,0.00,VWS V14.00,2013-09-30 16:53:00,
2013-09-30 12:59:00,88.7,31.6,29.92,SSE,165,0.0,0.0,13,0.00,,---,0.00,VWS V14.00,2013-09-30 16:59:00,
2013-09-30 13:05:00,88.7,31.6,29.92,SSE,165,0.0,0.0,13,0.00,,---,0.00,VWS V14.00,2013-09-30 17:05:00,
2013-09-30 13:10:00,88.9,31.7,29.92,SSE,158,0.0,0.0,13,0.00,,---,0.00,VWS V14.00,2013-09-30 17:10:00,
2013-09-30 13:15:00,89.2,32.0,29.92,SSE,158,0.0,0.0,13,0.00,,---,0.00,VWS V14.00,2013-09-30 17:15:00,
2013-09-30 13:21:00,88.5,31.5,29.92,SSE,161,0.0,0.0,13,0.00,,---,0.00,VWS V14.00,2013-09-30 17:21:00,
2013-09-30 13:27:00,88.3,31.3,29.92,SSE,161,0.0,0.0,13,0.00,,---,0.00,VWS V14.00,2013-09-30 17:27:00,
2013-09-30 13:32:00,88.9,31.7,29.92,SSE,161,0.0,0.0,13,0.00,,---,0.00,VWS V14.00,2013-09-30 17:32:00,
2013-09-30 13:38:00,89.2,32.0,29.92,SSE,161,0.0,0.0,13,0.00,,---,0.00,VWS V14.00,2013-09-30 17:38:00,
2013-09-30 13:43:00,89.1,31.9,29.92,SSE,161,0.0,0.0,13,0.00,,---,0.00,VWS V14.00,2013-09-30 17:43:00,
2013-09-30 13:48:00,88.9,31.7,29.92,SSE,147,0.0,0.0,13,0.00,,---,0.00,VWS V14.00,2013-09-30 17:48:00,
2013-09-30 13:54:00,88.9,31.7,29.92,SSE,147,0.0,0.0,13,0.00,,---,0.00,VWS V14.00,2013-09-30 17:54:00,
2013-09-30 13:59:00,89.8,30.5,29.92,SSE,147,0.0,0.0,12,0.00,,---,0.00,VWS V14.00,2013-09-30 17:59:00,
2013-09-30 14:05:00,89.6,30.3,29.92,SSE,147,0.0,0.0,12,0.00,,---,0.00,VWS V14.00,2013-09-30 18:05:00,
2013-09-30 14:10:00,89.6,30.3,29.92,SSE,147,0.0,0.0,12,0.00,,---,0.00,VWS V14.00,2013-09-30 18:10:00,
2013-09-30 14:16:00,89.8,30.5,29.89,SSE,147,0.0,0.0,12,0.00,,---,0.00,VWS V14.00,2013-09-30 18:16:00,
2013-09-30 14:21:00,90.0,30.6,29.89,SSE,147,0.0,2.7,12,0.00,,---,0.00,VWS V14.00,2013-09-30 18:21:00,
2013-09-30 14:27:00,90.0,30.6,29.89,SSE,147,0.0,0.0,12,0.00,,---,0.00,VWS V14.00,2013-09-30 18:27:00,
2013-09-30 14:33:00,90.1,30.7,29.89,SSE,147,0.0,0.0,12,0.00,,---,0.00,VWS V14.00,2013-09-30 18:33:00,
2013-09-30 14:38:00,90.1,30.7,29.89,SSE,148,0.0,0.0,12,0.00,,---,0.00,VWS V14.00,2013-09-30 18:38:00,
2013-09-30 14:43:00,90.3,30.9,29.89,SSE,148,0.0,0.0,12,0.00,,---,0.00,VWS V14.00,2013-09-30 18:43:00,
2013-09-30 14:48:00,89.4,32.2,29.89,SSE,148,0.0,0.0,13,0.00,,---,0.00,VWS V14.00,2013-09-30 18:48:00,
2013-09-30 14:54:00,89.4,32.2,29.89,ENE,58,0.0,0.0,13,0.00,,---,0.00,VWS V14.00,2013-09-30 18:54:00,
2013-09-30 14:59:00,89.4,32.2,29.89,ENE,58,0.0,0.0,13,0.00,,---,0.00,VWS V14.00,2013-09-30 18:59:00,
2013-09-30 15:05:00,89.6,30.3,29.89,ENE,58,0.0,0.0,12,0.00,,---,0.00,VWS V14.00,2013-09-30 19:05:00,
2013-09-30 15:10:00,89.4,32.2,29.89,ENE,58,0.0,0.0,13,0.00,,---,0.00,VWS V14.00,2013-09-30 19:10:00,
2013-09-30 15:16:00,89.4,32.2,29.89,ESE,115,0.0,0.0,13,0.00,,---,0.00,VWS V14.00,2013-09-30 19:16:00,
2013-09-30 15:21:00,89.4,32.2,29.89,ESE,115,0.0,0.0,13,0.00,,---,0.00,VWS V14.00,2013-09-30 19:21:00,
2013-09-30 15:26:00,89.4,32.2,29.89,ESE,115,0.0,0.0,13,0.00,,---,0.00,VWS V14.00,2013-09-30 19:26:00,
2013-09-30 15:31:00,88.7,31.6,29.89,ESE,115,0.0,0.0,13,0.00,,---,0.00,VWS V14.00,2013-09-30 19:31:00,
2013-09-30 15:37:00,88.7,31.6,29.89,ESE,115,0.0,0.0,13,0.00,,---,0.00,VWS V14.00,2013-09-30 19:37:00,
2013-09-30 15:43:00,88.9,31.7,29.89,East,80,0.0,0.0,13,0.00,,---,0.00,VWS V14.00,2013-09-30 19:43:00,
2013-09-30 15:48:00,88.9,31.7,29.89,East,80,0.0,0.0,13,0.00,,---,0.00,VWS V14.00,2013-09-30 19:48:00,
2013-09-30 15:54:00,88.9,31.7,29.89,East,80,0.0,0.0,13,0.00,,---,0.00,VWS V14.00,2013-09-30 19:54:00,
2013-09-30 15:59:00,89.2,32.0,29.89,NE,34,0.0,0.0,13,0.00,,---,0.00,VWS V14.00,2013-09-30 19:59:00,
2013-09-30 16:05:00,88.5,31.5,29.89,NE,34,0.0,0.0,13,0.00,,---,0.00,VWS V14.00,2013-09-30 20:05:00,
2013-09-30 16:11:00,88.5,31.5,29.89,NE,34,0.0,0.0,13,0.00,,---,0.00,VWS V14.00,2013-09-30 20:11:00,
2013-09-30 16:16:00,88.5,31.5,29.89,NE,34,0.0,0.0,13,0.00,,---,0.00,VWS V14.00,2013-09-30 20:16:00,
2013-09-30 16:22:00,88.3,31.3,29.89,NE,34,0.0,0.0,13,0.00,,---,0.00,VWS V14.00,2013-09-30 20:22:00,
2013-09-30 16:28:00,88.3,31.3,29.89,NE,34,0.0,0.0,13,0.00,,---,0.00,VWS V14.00,2013-09-30 20:28:00,
2013-09-30 16:33:00,87.4,30.6,29.89,NE,34,0.0,0.0,13,0.00,,---,0.00,VWS V14.00,2013-09-30 20:33:00,
2013-09-30 16:39:00,87.4,30.6,29.89,NE,34,0.0,0.0,13,0.00,,---,0.00,VWS V14.00,2013-09-30 20:39:00,
2013-09-30 16:44:00,87.8,30.9,29.89,NE,34,0.0,0.0,13,0.00,,---,0.00,VWS V14.00,2013-09-30 20:44:00,
2013-09-30 16:49:00,87.8,30.9,29.89,NE,34,0.0,0.0,13,0.00,,---,0.00,VWS V14.00,2013-09-30 20:49:00,
2013-09-30 16:54:00,87.8,30.9,29.89,NE,34,0.0,0.0,13,0.00,,---,0.00,VWS V14.00,2013-09-30 20:54:00,
2013-09-30 17:00:00,87.1,30.3,29.89,NE,34,0.0,0.0,13,0.00,,---,0.00,VWS V14.00,2013-09-30 21:00:00,
2013-09-30 17:05:00,87.1,30.3,29.89,NE,34,0.0,0.0,13,0.00,,---,0.00,VWS V14.00,2013-09-30 21:05:00,
2013-09-30 17:11:00,87.3,30.5,29.89,NE,34,0.0,0.0,13,0.00,,---,0.00,VWS V14.00,2013-09-30 21:11:00,
2013-09-30 17:17:00,87.1,30.3,29.89,NE,34,0.0,0.0,13,0.00,,---,0.00,VWS V14.00,2013-09-30 21:17:00,
2013-09-30 17:22:00,86.5,29.9,29.89,NE,34,0.0,0.0,13,0.00,,---,0.00,VWS V14.00,2013-09-30 21:22:00,
2013-09-30 17:27:00,86.7,30.0,29.89,NE,34,0.0,0.0,13,0.00,,---,0.00,VWS V14.00,2013-09-30 21:27:00,
2013-09-30 17:32:00,86.9,30.2,29.89,NE,34,0.0,0.0,13,0.00,,---,0.00,VWS V14.00,2013-09-30 21:32:00,
2013-09-30 17:38:00,86.9,30.2,29.89,NE,34,0.0,0.0,13,0.00,,---,0.00,VWS V14.00,2013-09-30 21:38:00,
2013-09-30 17:43:00,86.5,29.9,29.89,NE,34,0.0,0.0,13,0.00,,---,0.00,VWS V14.00,2013-09-30 21:43:00,
2013-09-30 17:49:00,85.8,29.4,29.89,NE,34,0.0,0.0,13,0.00,,---,0.00,VWS V14.00,2013-09-30 21:49:00,
2013-09-30 17:54:00,86.4,29.8,29.89,NE,34,0.0,0.0,13,0.00,,---,0.00,VWS V14.00,2013-09-30 21:54:00,
2013-09-30 18:00:00,86.4,29.8,29.89,NE,34,0.0,0.0,13,0.00,,---,0.00,VWS V14.00,2013-09-30 22:00:00,
2013-09-30 18:05:00,85.8,29.4,29.89,NE,34,0.0,0.0,13,0.00,,---,0.00,VWS V14.00,2013-09-30 22:05:00,
2013-09-30 18:11:00,85.1,28.8,29.89,NE,34,0.0,0.0,13,0.00,,---,0.00,VWS V14.00,2013-09-30 22:11:00,
2013-09-30 18:17:00,85.1,28.8,29.89,NE,34,0.0,0.0,13,0.00,,---,0.00,VWS V14.00,2013-09-30 22:17:00,
2013-09-30 18:22:00,85.1,28.8,29.89,NE,34,0.0,0.0,13,0.00,,---,0.00,VWS V14.00,2013-09-30 22:22:00,
2013-09-30 18:28:00,85.1,28.8,29.89,NE,34,0.0,0.0,13,0.00,,---,0.00,VWS V14.00,2013-09-30 22:28:00,
2013-09-30 18:34:00,84.0,29.8,29.89,NE,34,0.0,0.0,14,0.00,,---,0.00,VWS V14.00,2013-09-30 22:34:00,
2013-09-30 18:39:00,83.5,29.3,29.89,NE,34,0.0,0.0,14,0.00,,---,0.00,VWS V14.00,2013-09-30 22:39:00,
2013-09-30 18:45:00,83.1,29.0,29.92,NE,34,0.0,0.0,14,0.00,,---,0.00,VWS V14.00,2013-09-30 22:45:00,
2013-09-30 18:50:00,82.9,28.9,29.92,NE,34,0.0,0.0,14,0.00,,---,0.00,VWS V14.00,2013-09-30 22:50:00,
2013-09-30 18:56:00,82.0,28.2,29.92,NE,34,0.0,0.0,14,0.00,,---,0.00,VWS V14.00,2013-09-30 22:56:00,
2013-09-30 19:01:00,81.9,28.0,29.92,NE,34,0.0,0.0,14,0.00,,---,0.00,VWS V14.00,2013-09-30 23:01:00,
2013-09-30 19:06:00,81.7,32.7,29.92,NE,34,0.0,0.0,17,0.00,,---,0.00,VWS V14.00,2013-09-30 23:06:00,
2013-09-30 19:12:00,81.7,32.7,29.92,NE,34,0.0,0.0,17,0.00,,---,0.00,VWS V14.00,2013-09-30 23:12:00,
2013-09-30 19:17:00,81.5,32.5,29.92,NE,34,0.0,0.0,17,0.00,,---,0.00,VWS V14.00,2013-09-30 23:17:00,
2013-09-30 19:23:00,81.0,32.1,29.92,NE,34,0.0,0.0,17,0.00,,---,0.00,VWS V14.00,2013-09-30 23:23:00,
2013-09-30 19:28:00,81.0,32.1,29.92,NE,34,0.0,0.0,17,0.00,,---,0.00,VWS V14.00,2013-09-30 23:28:00,
2013-09-30 19:33:00,81.1,35.0,29.92,NE,34,0.0,0.0,19,0.00,,---,0.00,VWS V14.00,2013-09-30 23:33:00,
2013-09-30 19:38:00,81.0,34.9,29.92,NE,34,0.0,0.0,19,0.00,,---,0.00,VWS V14.00,2013-09-30 23:38:00,
2013-09-30 19:44:00,80.8,34.7,29.92,NE,34,0.0,0.0,19,0.00,,---,0.00,VWS V14.00,2013-09-30 23:44:00,
2013-09-30 19:49:00,80.2,35.6,29.92,NE,34,0.0,0.0,20,0.00,,---,0.00,VWS V14.00,2013-09-30 23:49:00,
2013-09-30 19:54:00,80.4,35.7,29.92,NE,34,0.0,0.0,20,0.00,,---,0.00,VWS V14.00,2013-09-30 23:54:00,
2013-09-30 19:59:00,80.2,35.6,29.92,NE,34,0.0,0.0,20,0.00,,---,0.00,VWS V14.00,2013-09-30 23:59:00,
2013-09-30 20:04:00,80.2,35.6,29.92,NE,34,0.0,0.0,20,0.00,,---,0.00,VWS V14.00,2013-10-01 00:04:00,
2013-09-30 20:10:00,79.9,35.3,29.95,NE,34,0.0,0.0,20,0.00,,---,0.00,VWS V14.00,2013-10-01 00:10:00,
2013-09-30 20:16:00,80.2,35.6,29.95,NE,34,0.0,0.0,20,0.00,,---,0.00,VWS V14.00,2013-10-01 00:16:00,
2013-09-30 20:21:00,80.2,35.6,29.95,NE,34,0.0,0.0,20,0.00,,---,0.00,VWS V14.00,2013-10-01 00:21:00,
2013-09-30 20:27:00,79.7,35.1,29.95,NE,34,0.0,0.0,20,0.00,,---,0.00,VWS V14.00,2013-10-01 00:27:00,
2013-09-30 20:32:00,79.9,35.3,29.95,NE,34,0.0,0.0,20,0.00,,---,0.00,VWS V14.00,2013-10-01 00:32:00,
2013-09-30 20:38:00,79.9,35.3,29.95,NE,34,0.0,0.0,20,0.00,,---,0.00,VWS V14.00,2013-10-01 00:38:00,
2013-09-30 20:44:00,79.3,34.8,29.95,NE,34,0.0,0.0,20,0.00,,---,0.00,VWS V14.00,2013-10-01 00:44:00,
2013-09-30 20:49:00,79.2,34.7,29.95,NE,34,0.0,0.0,20,0.00,,---,0.00,VWS V14.00,2013-10-01 00:49:00,
2013-09-30 20:55:00,79.3,34.8,29.95,NE,34,0.0,0.0,20,0.00,,---,0.00,VWS V14.00,2013-10-01 00:55:00,
2013-09-30 21:01:00,79.0,34.5,29.95,NE,34,0.0,0.0,20,0.00,,---,0.00,VWS V14.00,2013-10-01 01:01:00,
2013-09-30 21:07:00,78.8,34.4,29.95,NE,34,0.0,0.0,20,0.00,,---,0.00,VWS V14.00,2013-10-01 01:07:00,
2013-09-30 21:13:00,78.6,34.2,29.95,NE,34,0.0,0.0,20,0.00,,---,0.00,VWS V14.00,2013-10-01 01:13:00,
2013-09-30 21:19:00,78.6,35.5,29.95,NE,34,0.0,0.0,21,0.00,,---,0.00,VWS V14.00,2013-10-01 01:19:00,
2013-09-30 21:24:00,78.4,35.3,29.95,NE,34,0.0,0.0,21,0.00,,---,0.00,VWS V14.00,2013-10-01 01:24:00,
2013-09-30 21:30:00,78.4,35.3,29.95,NE,34,0.0,0.0,21,0.00,,---,0.00,VWS V14.00,2013-10-01 01:30:00,
2013-09-30 21:36:00,78.1,35.0,29.95,NE,34,0.0,0.0,21,0.00,,---,0.00,VWS V14.00,2013-10-01 01:36:00,
2013-09-30 21:41:00,78.1,35.0,29.95,NE,34,0.0,0.0,21,0.00,,---,0.00,VWS V14.00,2013-10-01 01:41:00,
2013-09-30 21:46:00,77.9,34.9,29.95,NE,34,0.0,0.0,21,0.00,,---,0.00,VWS V14.00,2013-10-01 01:46:00,
2013-09-30 21:51:00,77.5,34.6,29.95,NE,34,0.0,0.0,21,0.00,,---,0.00,VWS V14.00,2013-10-01 01:51:00,
2013-09-30 21:56:00,77.5,34.6,29.95,NE,34,0.0,0.0,21,0.00,,---,0.00,VWS V14.00,2013-10-01 01:56:00,
2013-09-30 22:01:00,77.5,34.6,29.95,NE,34,0.0,0.0,21,0.00,,---,0.00,VWS V14.00,2013-10-01 02:01:00,
2013-09-30 22:07:00,77.5,34.6,29.98,NE,34,0.0,0.0,21,0.00,,---,0.00,VWS V14.00,2013-10-01 02:07:00,
2013-09-30 22:12:00,77.2,34.3,29.98,NE,34,0.0,0.0,21,0.00,,---,0.00,VWS V14.00,2013-10-01 02:12:00,
2013-09-30 22:18:00,77.2,34.3,29.98,NE,34,0.0,0.0,21,0.00,,---,0.00,VWS V14.00,2013-10-01 02:18:00,
2013-09-30 22:23:00,77.4,34.4,29.98,NE,34,0.0,0.0,21,0.00,,---,0.00,VWS V14.00,2013-10-01 02:23:00,
2013-09-30 22:29:00,77.4,34.4,29.98,NE,34,0.0,0.0,21,0.00,,---,0.00,VWS V14.00,2013-10-01 02:29:00,
2013-09-30 22:34:00,77.0,34.1,29.98,NE,34,0.0,0.0,21,0.00,,---,0.00,VWS V14.00,2013-10-01 02:34:00,
2013-09-30 22:40:00,77.0,34.1,29.98,NE,34,0.0,0.0,21,0.00,,---,0.00,VWS V14.00,2013-10-01 02:40:00,
2013-09-30 22:46:00,77.0,35.3,29.98,NE,34,0.0,0.0,22,0.00,,---,0.00,VWS V14.00,2013-10-01 02:46:00,
2013-09-30 22:51:00,76.8,35.1,29.98,NE,34,0.0,0.0,22,0.00,,---,0.00,VWS V14.00,2013-10-01 02:51:00,
2013-09-30 22:57:00,76.6,36.1,29.98,NE,34,0.0,0.0,23,0.00,,---,0.00,VWS V14.00,2013-10-01 02:57:00,
2013-09-30 23:02:00,76.8,36.2,29.98,NE,34,0.0,0.0,23,0.00,,---,0.00,VWS V14.00,2013-10-01 03:02:00,
2013-09-30 23:07:00,76.8,36.2,29.98,NE,34,0.0,0.0,23,0.00,,---,0.00,VWS V14.00,2013-10-01 03:07:00,
2013-09-30 23:12:00,76.8,36.2,29.98,NE,34,0.0,0.0,23,0.00,,---,0.00,VWS V14.00,2013-10-01 03:12:00,
2013-09-30 23:18:00,76.3,35.8,29.98,NE,34,0.0,0.0,23,0.00,,---,0.00,VWS V14.00,2013-10-01 03:18:00,
2013-09-30 23:23:00,76.3,36.9,29.98,NE,34,0.0,0.0,24,0.00,,---,0.00,VWS V14.00,2013-10-01 03:23:00,
2013-09-30 23:29:00,76.5,37.0,29.98,NE,34,0.0,0.0,24,0.00,,---,0.00,VWS V14.00,2013-10-01 03:29:00,
2013-09-30 23:35:00,76.5,37.0,29.98,NE,34,0.0,0.0,24,0.00,,---,0.00,VWS V14.00,2013-10-01 03:35:00,
2013-09-30 23:40:00,76.3,36.9,29.98,NE,34,0.0,0.0,24,0.00,,---,0.00,VWS V14.00,2013-10-01 03:40:00,
2013-09-30 23:46:00,76.1,37.8,29.98,NE,34,0.0,0.0,25,0.00,,---,0.00,VWS V14.00,2013-10-01 03:46:00,
2013-09-30 23:51:00,76.1,37.8,29.98,NE,34,0.0,0.0,25,0.00,,---,0.00,VWS V14.00,2013-10-01 03:51:00,
2013-09-30 23:57:00,76.1,37.8,29.98,NE,34,0.0,0.0,25,0.00,,---,0.00,VWS V14.00,2013-10-01 03:57:00,